CXA1012 ZHCC-ZBAA

Flight info

Callsign CXA1012
Flight time 1h 15m
Altitude 41100
Route OKT9W OKTOX W56 LEBUN/K0902S1220 W56 NUDKU/K0900S1250 W56 DUGEB DUGEB4A
Aircraft A35K/H-SDE2E3GHIJ3J4J5LM1ORWXY/LB1D1

Departure

Time 2026-05-08 05:30
Airport Zhengzhou Xinzheng International Airport (ZHCC)

Arrival

Time 2026-05-08 06:45
Airport Beijing Capital International Airport (ZBAA)
Time Latitude Longitude Altitude Speed Heading
2026-05-08 05:05 34.53265 113.84969 508 ft 0 kts 208°
2026-05-08 05:17 34.53266 113.84969 508 ft 0 kts 208°
2026-05-08 05:18 34.53274 113.84974 535 ft 3 kts 208°
2026-05-08 05:18 34.53291 113.84985 508 ft 3 kts 207°
2026-05-08 05:18 34.53309 113.84996 508 ft 3 kts 217°
2026-05-08 05:19 34.53324 113.85013 508 ft 3 kts 235°
2026-05-08 05:19 34.53333 113.85035 508 ft 3 kts 253°
2026-05-08 05:19 34.53336 113.85053 508 ft 0 kts 268°
2026-05-08 05:19 34.53337 113.85053 509 ft 0 kts 291°
2026-05-08 05:24 34.53346 113.85023 508 ft 15 kts 289°
2026-05-08 05:24 34.53389 113.84878 508 ft 19 kts 292°
2026-05-08 05:25 34.53445 113.84718 508 ft 22 kts 291°
2026-05-08 05:25 34.53504 113.84541 508 ft 24 kts 292°
2026-05-08 05:25 34.53570 113.84349 508 ft 26 kts 292°
2026-05-08 05:25 34.53640 113.84142 508 ft 27 kts 293°
2026-05-08 05:26 34.53720 113.83975 508 ft 17 kts 335°
2026-05-08 05:26 34.53822 113.84009 506 ft 15 kts 22°
2026-05-08 05:26 34.53831 113.84013 506 ft 0 kts 22°
2026-05-08 05:27 34.53848 113.84021 506 ft 13 kts 21°
2026-05-08 05:27 34.53931 113.84093 505 ft 11 kts 81°
2026-05-08 05:27 34.53910 113.84186 504 ft 13 kts 112°
2026-05-08 05:28 34.53902 113.84210 505 ft 0 kts 112°
2026-05-08 05:29 34.53899 113.84218 505 ft 6 kts 112°
2026-05-08 05:29 34.53786 113.84551 506 ft 82 kts 112°
2026-05-08 05:29 34.53477 113.85455 505 ft 148 kts 112°
2026-05-08 05:29 34.53034 113.86809 751 ft 186 kts 112°
2026-05-08 05:30 34.52584 113.88317 1461 ft 196 kts 111°
2026-05-08 05:30 34.52111 113.89896 2068 ft 205 kts 115°
2026-05-08 05:30 34.51516 113.91528 2537 ft 218 kts 116°
2026-05-08 05:30 34.50863 113.93298 2892 ft 244 kts 115°
2026-05-08 05:31 34.50166 113.95256 3414 ft 259 kts 114°
2026-05-08 05:31 34.49449 113.97293 4186 ft 265 kts 115°
2026-05-08 05:31 34.48728 113.99345 4923 ft 271 kts 113°
2026-05-08 05:31 34.47996 114.01465 5673 ft 275 kts 112°
2026-05-08 05:32 34.47259 114.03617 6449 ft 278 kts 112°
2026-05-08 05:32 34.46561 114.05810 7176 ft 280 kts 105°
2026-05-08 05:32 34.46190 114.08118 7979 ft 278 kts 95°
2026-05-08 05:32 34.45957 114.10442 8763 ft 278 kts 95°
2026-05-08 05:33 34.45728 114.12777 9551 ft 280 kts 95°
2026-05-08 05:33 34.45488 114.15127 10296 ft 283 kts 95°
2026-05-08 05:33 34.45243 114.17545 10706 ft 298 kts 95°
2026-05-08 05:33 34.44985 114.20116 10976 ft 316 kts 95°
2026-05-08 05:34 34.44708 114.22825 11266 ft 332 kts 95°
2026-05-08 05:34 34.44413 114.25671 11527 ft 348 kts 95°
2026-05-08 05:34 34.44103 114.28634 11835 ft 361 kts 96°
2026-05-08 05:34 34.43781 114.31682 12258 ft 369 kts 96°
2026-05-08 05:35 34.43455 114.34788 12737 ft 374 kts 96°
2026-05-08 05:35 34.43122 114.37937 13240 ft 379 kts 96°
2026-05-08 05:35 34.42799 114.41080 13722 ft 383 kts 95°
2026-05-08 05:35 34.42812 114.44312 14171 ft 385 kts 80°
2026-05-08 05:36 34.43504 114.47489 14645 ft 386 kts 70°
2026-05-08 05:36 34.44528 114.50451 15112 ft 387 kts 59°
2026-05-08 05:36 34.46080 114.53107 15605 ft 387 kts 45°
2026-05-08 05:36 34.48132 114.55200 16055 ft 386 kts 30°
2026-05-08 05:37 34.50549 114.56588 16573 ft 385 kts 15°
2026-05-08 05:37 34.53159 114.57272 17094 ft 385 kts
2026-05-08 05:37 34.55827 114.57647 17610 ft 387 kts
2026-05-08 05:37 34.58520 114.57886 18112 ft 389 kts
2026-05-08 05:38 34.61230 114.58075 18594 ft 391 kts
2026-05-08 05:38 34.63960 114.58267 18977 ft 393 kts
2026-05-08 05:38 34.66699 114.58477 19425 ft 396 kts
2026-05-08 05:38 34.69454 114.58712 19837 ft 398 kts
2026-05-08 05:39 34.72222 114.58966 20252 ft 401 kts
2026-05-08 05:39 34.75011 114.59227 20673 ft 403 kts
2026-05-08 05:39 34.77816 114.59495 21096 ft 405 kts
2026-05-08 05:39 34.80640 114.59766 21492 ft 408 kts
2026-05-08 05:40 34.83439 114.60035 21880 ft 410 kts
2026-05-08 05:40 34.86330 114.60315 22273 ft 413 kts
2026-05-08 05:40 34.89202 114.60592 22631 ft 415 kts
2026-05-08 05:40 34.92057 114.60868 23002 ft 418 kts
2026-05-08 05:41 34.94962 114.61146 23354 ft 420 kts
2026-05-08 05:41 34.97887 114.61425 23717 ft 423 kts
2026-05-08 05:41 35.00825 114.61705 24013 ft 425 kts 360°
2026-05-08 05:41 35.03787 114.61988 24274 ft 428 kts 360°
2026-05-08 05:42 35.06768 114.62273 24545 ft 431 kts 359°
2026-05-08 05:42 35.09764 114.62561 24750 ft 432 kts 359°
2026-05-08 05:42 35.12761 114.62850 24795 ft 433 kts 359°
2026-05-08 05:42 35.15767 114.63139 24797 ft 434 kts 359°
2026-05-08 05:43 35.18774 114.63428 24790 ft 434 kts 359°
2026-05-08 05:43 35.21798 114.63720 24888 ft 436 kts 359°
2026-05-08 05:43 35.24829 114.64012 25209 ft 438 kts 359°
2026-05-08 05:43 35.27870 114.64307 25506 ft 440 kts 359°
2026-05-08 05:44 35.30931 114.64602 25731 ft 443 kts 359°
2026-05-08 05:44 35.34059 114.64897 25778 ft 459 kts 359°
2026-05-08 05:44 35.37278 114.65198 25774 ft 466 kts 359°
2026-05-08 05:44 35.40512 114.65511 25780 ft 466 kts 359°
2026-05-08 05:45 35.43736 114.65828 25779 ft 465 kts 359°
2026-05-08 05:45 35.46959 114.66145 25775 ft 465 kts 359°
2026-05-08 05:45 35.50184 114.66462 25772 ft 465 kts 359°
2026-05-08 05:45 35.53416 114.66778 25771 ft 466 kts 359°
2026-05-08 05:46 35.56679 114.67093 25772 ft 474 kts 359°
2026-05-08 05:46 35.59932 114.67405 25767 ft 477 kts 359°
2026-05-08 05:46 35.63238 114.67726 25766 ft 477 kts 359°
2026-05-08 05:46 35.66551 114.68052 25761 ft 477 kts 359°
2026-05-08 05:47 35.69862 114.68378 25764 ft 477 kts 359°
2026-05-08 05:47 35.73168 114.68703 25761 ft 477 kts 359°
2026-05-08 05:47 35.76476 114.69028 25762 ft 477 kts 359°
2026-05-08 05:47 35.79784 114.69351 25760 ft 477 kts 359°
2026-05-08 05:48 35.83095 114.69674 25755 ft 477 kts 359°
2026-05-08 05:48 35.86400 114.69997 25754 ft 476 kts 359°
2026-05-08 05:48 35.89705 114.70321 25753 ft 476 kts 359°
2026-05-08 05:48 35.93010 114.70645 25752 ft 476 kts 359°
2026-05-08 05:49 35.96313 114.70970 25749 ft 476 kts 359°
2026-05-08 05:49 35.99614 114.71294 25752 ft 476 kts 359°
2026-05-08 05:49 36.02909 114.71618 25749 ft 475 kts 359°
2026-05-08 05:49 36.06210 114.71943 25748 ft 475 kts 359°
2026-05-08 05:50 36.09505 114.72268 25743 ft 475 kts 359°
2026-05-08 05:50 36.12793 114.72596 25741 ft 474 kts 359°
2026-05-08 05:50 36.16081 114.72916 25739 ft 474 kts 359°
2026-05-08 05:50 36.19323 114.73231 25739 ft 474 kts 359°
2026-05-08 05:51 36.22612 114.73551 25738 ft 473 kts 359°
2026-05-08 05:51 36.25894 114.73872 25735 ft 473 kts 359°
2026-05-08 05:51 36.29170 114.74193 25732 ft 472 kts 359°
2026-05-08 05:51 36.32449 114.74520 25734 ft 472 kts 359°
2026-05-08 05:52 36.35720 114.75004 25729 ft 476 kts
2026-05-08 05:52 36.38937 114.76100 25730 ft 484 kts 14°
2026-05-08 05:52 36.42072 114.77646 25725 ft 485 kts 17°
2026-05-08 05:52 36.45164 114.79344 25722 ft 486 kts 19°
2026-05-08 05:53 36.48237 114.81126 25720 ft 486 kts 19°
2026-05-08 05:53 36.50265 114.82324 25720 ft 486 kts 19°
2026-05-08 05:53 36.53309 114.84132 25717 ft 486 kts 19°
2026-05-08 05:53 36.56359 114.85937 25713 ft 485 kts 19°
2026-05-08 05:54 36.59414 114.87734 25716 ft 485 kts 19°
2026-05-08 05:54 36.62469 114.89520 25719 ft 484 kts 19°
2026-05-08 05:54 36.65520 114.91298 25721 ft 484 kts 19°
2026-05-08 05:54 36.68575 114.93075 25710 ft 483 kts 19°
2026-05-08 05:55 36.71617 114.94845 25713 ft 483 kts 19°
2026-05-08 05:55 36.74662 114.96618 25714 ft 482 kts 19°
2026-05-08 05:55 36.78688 114.98964 25708 ft 482 kts 19°
2026-05-08 05:55 36.80739 115.00161 25709 ft 482 kts 19°
2026-05-08 05:56 36.83777 115.01936 25713 ft 482 kts 18°
2026-05-08 05:56 36.86777 115.03693 25712 ft 485 kts 18°
2026-05-08 05:56 36.89835 115.05481 25707 ft 486 kts 18°
2026-05-08 05:56 36.92897 115.07273 25704 ft 486 kts 19°
2026-05-08 05:57 36.95962 115.09070 25706 ft 486 kts 18°
2026-05-08 05:57 36.99019 115.10865 25705 ft 485 kts 18°
2026-05-08 05:57 37.02077 115.12661 25700 ft 485 kts 19°
2026-05-08 05:57 37.05143 115.14465 25701 ft 485 kts 19°
2026-05-08 05:58 37.08190 115.16259 25702 ft 484 kts 18°
2026-05-08 05:58 37.11240 115.18055 25697 ft 484 kts 18°
2026-05-08 05:58 37.14289 115.19853 25698 ft 484 kts 19°
2026-05-08 05:58 37.17330 115.21648 25696 ft 483 kts 19°
2026-05-08 05:59 37.20379 115.23449 25699 ft 483 kts 19°
2026-05-08 05:59 37.23382 115.25224 25697 ft 483 kts 19°
2026-05-08 05:59 37.26419 115.27021 25691 ft 482 kts 19°
2026-05-08 05:59 37.29457 115.28820 25693 ft 482 kts 19°
2026-05-08 06:00 37.32490 115.30617 25688 ft 481 kts 19°
2026-05-08 06:00 37.35515 115.32412 25691 ft 481 kts 18°
2026-05-08 06:00 37.38546 115.34212 25695 ft 481 kts 19°
2026-05-08 06:00 37.41566 115.36007 25686 ft 480 kts 19°
2026-05-08 06:01 37.44588 115.37805 25683 ft 480 kts 19°
2026-05-08 06:01 37.47605 115.39601 25692 ft 480 kts 19°
2026-05-08 06:01 37.50617 115.41395 25675 ft 479 kts 19°
2026-05-08 06:01 37.53628 115.43191 25675 ft 479 kts 19°
2026-05-08 06:02 37.56641 115.44990 25675 ft 479 kts 19°
2026-05-08 06:02 37.59653 115.46790 25686 ft 478 kts 19°
2026-05-08 06:02 37.62666 115.48592 25682 ft 478 kts 19°
2026-05-08 06:02 37.65672 115.50391 25675 ft 478 kts 19°
2026-05-08 06:03 37.68671 115.52188 25675 ft 477 kts 19°
2026-05-08 06:03 37.71673 115.53989 25675 ft 477 kts 19°
2026-05-08 06:03 37.74634 115.55766 25674 ft 477 kts 19°
2026-05-08 06:03 37.77691 115.57348 25673 ft 470 kts 11°
2026-05-08 06:04 37.80836 115.58285 25672 ft 460 kts
2026-05-08 06:04 37.84003 115.58523 25671 ft 453 kts 354°
2026-05-08 06:04 37.87153 115.58453 25665 ft 452 kts 352°
2026-05-08 06:04 37.90223 115.58260 25665 ft 450 kts 351°
2026-05-08 06:05 37.92368 115.58089 25666 ft 450 kts 351°
2026-05-08 06:05 37.95495 115.57818 25663 ft 450 kts 351°
2026-05-08 06:05 37.98622 115.57546 25662 ft 450 kts 351°
2026-05-08 06:05 38.01742 115.57286 25656 ft 450 kts 351°
2026-05-08 06:06 38.04868 115.57037 25652 ft 450 kts 351°
2026-05-08 06:06 38.07956 115.56802 25655 ft 450 kts 352°
2026-05-08 06:06 38.11129 115.56601 25651 ft 451 kts 353°
2026-05-08 06:06 38.14221 115.56446 25654 ft 450 kts 352°
2026-05-08 06:07 38.17346 115.56259 25653 ft 450 kts 352°
2026-05-08 06:07 38.20475 115.56050 25648 ft 450 kts 352°
2026-05-08 06:07 38.23608 115.55896 25642 ft 452 kts 355°
2026-05-08 06:07 38.26751 115.56295 25451 ft 458 kts
2026-05-08 06:08 38.29826 115.57502 25220 ft 466 kts 16°
2026-05-08 06:08 38.32812 115.59132 24995 ft 467 kts 19°
2026-05-08 06:08 38.35716 115.60912 24756 ft 459 kts 20°
2026-05-08 06:08 38.38540 115.62733 24257 ft 452 kts 21°
2026-05-08 06:09 38.41337 115.64559 23627 ft 449 kts 21°
2026-05-08 06:09 38.44074 115.66339 22904 ft 445 kts 21°
2026-05-08 06:09 38.46823 115.68111 22246 ft 439 kts 21°
2026-05-08 06:09 38.49536 115.69844 21596 ft 434 kts 21°
2026-05-08 06:10 38.52215 115.71549 20997 ft 427 kts 21°
2026-05-08 06:10 38.54867 115.73223 20399 ft 422 kts 21°
2026-05-08 06:10 38.57488 115.74876 19800 ft 417 kts 21°
2026-05-08 06:10 38.60073 115.76509 19200 ft 412 kts 21°
2026-05-08 06:11 38.62635 115.78131 18588 ft 409 kts 21°
2026-05-08 06:11 38.65166 115.79764 17931 ft 406 kts 23°
2026-05-08 06:11 38.67502 115.81790 17493 ft 405 kts 33°
2026-05-08 06:11 38.69693 115.84105 17449 ft 410 kts 35°
2026-05-08 06:12 38.71882 115.86463 17404 ft 411 kts 35°
2026-05-08 06:12 38.74070 115.88825 17368 ft 411 kts 35°
2026-05-08 06:12 38.76256 115.91182 17329 ft 411 kts 35°
2026-05-08 06:12 38.78443 115.93542 17289 ft 410 kts 35°
2026-05-08 06:13 38.80625 115.95896 17230 ft 410 kts 35°
2026-05-08 06:13 38.82808 115.98252 17155 ft 410 kts 35°
2026-05-08 06:13 38.84963 116.00581 17093 ft 410 kts 35°
2026-05-08 06:13 38.87142 116.02936 17017 ft 409 kts 35°
2026-05-08 06:14 38.89320 116.05293 16937 ft 409 kts 35°
2026-05-08 06:14 38.91495 116.07646 16861 ft 409 kts 35°
2026-05-08 06:14 38.93667 116.10000 16786 ft 409 kts 35°
2026-05-08 06:14 38.95840 116.12356 16716 ft 408 kts 35°
2026-05-08 06:15 38.98011 116.14712 16654 ft 408 kts 35°
2026-05-08 06:15 39.00199 116.17018 16565 ft 405 kts 31°
2026-05-08 06:15 39.02631 116.18756 16491 ft 396 kts 16°
2026-05-08 06:15 39.05282 116.19489 16429 ft 387 kts 359°
2026-05-08 06:16 39.07952 116.19337 16347 ft 383 kts 351°
2026-05-08 06:16 39.10602 116.18930 16287 ft 383 kts 350°
2026-05-08 06:16 39.13247 116.18506 16212 ft 383 kts 350°
2026-05-08 06:16 39.15898 116.18090 16137 ft 384 kts 350°
2026-05-08 06:17 39.21197 116.17276 16011 ft 383 kts 350°
2026-05-08 06:17 39.23847 116.16873 15942 ft 384 kts 350°
2026-05-08 06:17 39.26501 116.16469 15866 ft 384 kts 350°
2026-05-08 06:18 39.29154 116.16067 15795 ft 384 kts 350°
2026-05-08 06:18 39.31780 116.15668 15738 ft 384 kts 350°
2026-05-08 06:18 39.34465 116.15259 15666 ft 384 kts 350°
2026-05-08 06:18 39.37113 116.14857 15599 ft 383 kts 350°
2026-05-08 06:19 39.39725 116.14461 15529 ft 383 kts 350°
2026-05-08 06:19 39.42375 116.14059 15450 ft 383 kts 350°
2026-05-08 06:19 39.45017 116.13657 15391 ft 382 kts 350°
2026-05-08 06:19 39.47652 116.13255 15328 ft 382 kts 350°
2026-05-08 06:20 39.50294 116.12852 15255 ft 381 kts 350°
2026-05-08 06:20 39.52924 116.12450 15182 ft 381 kts 350°
2026-05-08 06:20 39.55555 116.12050 15113 ft 381 kts 350°
2026-05-08 06:20 39.58188 116.11647 15044 ft 380 kts 350°
2026-05-08 06:21 39.60811 116.11245 14982 ft 379 kts 350°
2026-05-08 06:21 39.63427 116.10844 14910 ft 379 kts 350°
2026-05-08 06:21 39.66045 116.10442 14838 ft 378 kts 350°
2026-05-08 06:21 39.68657 116.10041 14769 ft 378 kts 350°
2026-05-08 06:22 39.71266 116.09641 14709 ft 378 kts 350°
2026-05-08 06:22 39.73878 116.09238 14632 ft 377 kts 350°
2026-05-08 06:22 39.76484 116.08838 14569 ft 377 kts 350°
2026-05-08 06:22 39.79085 116.08438 14492 ft 376 kts 350°
2026-05-08 06:23 39.81684 116.08044 14425 ft 376 kts 350°
2026-05-08 06:23 39.84306 116.07854 14362 ft 378 kts 355°
2026-05-08 06:23 39.86936 116.07842 14291 ft 378 kts 356°
2026-05-08 06:23 39.89564 116.07852 14230 ft 378 kts 356°
2026-05-08 06:24 39.92194 116.07862 14156 ft 378 kts 356°
2026-05-08 06:24 39.94803 116.07871 14069 ft 368 kts 356°
2026-05-08 06:24 39.97307 116.07883 13972 ft 351 kts 356°
2026-05-08 06:24 39.99692 116.07893 13865 ft 335 kts 355°
2026-05-08 06:25 40.01982 116.07899 13757 ft 321 kts 355°
2026-05-08 06:25 40.04162 116.07902 13639 ft 307 kts 355°
2026-05-08 06:25 40.06247 116.07885 13517 ft 292 kts 353°
2026-05-08 06:25 40.08135 116.07385 13401 ft 270 kts 332°
2026-05-08 06:26 40.09614 116.06028 13211 ft 256 kts 312°
2026-05-08 06:26 40.10714 116.04242 12960 ft 250 kts 306°
2026-05-08 06:26 40.11725 116.02420 12697 ft 246 kts 305°
2026-05-08 06:26 40.12732 116.00606 12466 ft 246 kts 305°
2026-05-08 06:27 40.13765 115.98829 12197 ft 246 kts 309°
2026-05-08 06:27 40.15001 115.97277 11946 ft 247 kts 317°
2026-05-08 06:27 40.16328 115.95850 11709 ft 247 kts 318°
2026-05-08 06:27 40.17673 115.94427 11519 ft 252 kts 319°
2026-05-08 06:28 40.19027 115.92999 11485 ft 247 kts 318°
2026-05-08 06:28 40.20352 115.91607 11255 ft 244 kts 319°
2026-05-08 06:28 40.21813 115.90433 11021 ft 250 kts 329°
2026-05-08 06:28 40.23392 115.89455 10786 ft 251 kts 332°
2026-05-08 06:29 40.24985 115.88510 10533 ft 251 kts 330°
2026-05-08 06:29 40.26573 115.87557 10304 ft 251 kts 330°
2026-05-08 06:29 40.28162 115.86603 10070 ft 252 kts 331°
2026-05-08 06:29 40.29839 115.85865 9817 ft 256 kts 342°
2026-05-08 06:30 40.31587 115.85404 9551 ft 257 kts 344°
2026-05-08 06:30 40.33351 115.84982 9293 ft 259 kts 345°
2026-05-08 06:30 40.35164 115.84851 9026 ft 266 kts
2026-05-08 06:30 40.36923 115.85636 8874 ft 273 kts 28°
2026-05-08 06:31 40.38270 115.87366 8853 ft 280 kts 56°
2026-05-08 06:31 40.38928 115.89796 8861 ft 283 kts 84°
2026-05-08 06:31 40.38744 115.92315 8865 ft 282 kts 104°
2026-05-08 06:31 40.38476 115.94872 8865 ft 284 kts 91°
2026-05-08 06:32 40.38521 115.97458 8863 ft 284 kts 86°
2026-05-08 06:32 40.38630 116.00041 8863 ft 284 kts 86°
2026-05-08 06:32 40.38748 116.02618 8819 ft 282 kts 86°
2026-05-08 06:32 40.38859 116.05174 8848 ft 282 kts 86°
2026-05-08 06:33 40.38973 116.07752 8866 ft 284 kts 86°
2026-05-08 06:33 40.39087 116.10330 8865 ft 283 kts 86°
2026-05-08 06:33 40.39200 116.12909 8866 ft 283 kts 86°
2026-05-08 06:33 40.39314 116.15485 8871 ft 283 kts 86°
2026-05-08 06:34 40.39426 116.18071 8789 ft 284 kts 86°
2026-05-08 06:34 40.39536 116.20645 8491 ft 283 kts 86°
2026-05-08 06:34 40.39648 116.23219 8192 ft 282 kts 86°
2026-05-08 06:34 40.39763 116.25786 7804 ft 282 kts 87°
2026-05-08 06:35 40.39875 116.28355 7474 ft 281 kts 88°
2026-05-08 06:35 40.39978 116.30895 7162 ft 278 kts 88°
2026-05-08 06:35 40.40089 116.33427 6849 ft 276 kts 88°
2026-05-08 06:35 40.40201 116.35934 6580 ft 274 kts 88°
2026-05-08 06:36 40.40310 116.38415 6320 ft 270 kts 89°
2026-05-08 06:36 40.40417 116.40835 6189 ft 261 kts 89°
2026-05-08 06:36 40.40518 116.43149 5998 ft 248 kts 89°
2026-05-08 06:36 40.40614 116.45393 5789 ft 244 kts 90°
2026-05-08 06:37 40.40661 116.47584 5607 ft 239 kts 93°
2026-05-08 06:37 40.40661 116.49762 5419 ft 239 kts 93°
2026-05-08 06:37 40.40661 116.51932 5237 ft 237 kts 94°
2026-05-08 06:37 40.40482 116.54029 5064 ft 231 kts 114°
2026-05-08 06:38 40.39536 116.55581 4956 ft 213 kts 151°
2026-05-08 06:38 40.38184 116.56392 4833 ft 216 kts 163°
2026-05-08 06:38 40.36733 116.56826 4638 ft 213 kts 171°
2026-05-08 06:38 40.35271 116.57093 4512 ft 213 kts 174°
2026-05-08 06:39 40.33817 116.57316 4385 ft 206 kts 174°
2026-05-08 06:39 40.32432 116.57538 4295 ft 196 kts 173°
2026-05-08 06:39 40.31100 116.57759 4167 ft 190 kts 173°
2026-05-08 06:39 40.29798 116.57975 4083 ft 188 kts 173°
2026-05-08 06:40 40.28508 116.58191 4016 ft 183 kts 173°
2026-05-08 06:40 40.27687 116.58326 3974 ft 176 kts 174°
2026-05-08 06:40 40.26492 116.58512 3781 ft 173 kts 174°
2026-05-08 06:40 40.25288 116.58698 3462 ft 174 kts 172°
2026-05-08 06:41 40.24090 116.58893 3200 ft 174 kts 173°
2026-05-08 06:41 40.22491 116.59148 2847 ft 174 kts 173°
2026-05-08 06:41 40.21320 116.59324 2625 ft 165 kts 173°
2026-05-08 06:41 40.20568 116.59449 2475 ft 157 kts 173°
2026-05-08 06:42 40.19519 116.59617 2258 ft 147 kts 172°
2026-05-08 06:42 40.18200 116.59823 1984 ft 143 kts 172°
2026-05-08 06:42 40.17540 116.59922 1844 ft 139 kts 172°
2026-05-08 06:42 40.16624 116.60068 1632 ft 131 kts 172°
2026-05-08 06:43 40.15737 116.60214 1452 ft 127 kts 173°
2026-05-08 06:43 40.14856 116.60352 1272 ft 128 kts 173°
2026-05-08 06:43 40.13960 116.60490 1086 ft 130 kts 172°
2026-05-08 06:43 40.13053 116.60639 925 ft 131 kts 173°
2026-05-08 06:44 40.12155 116.60795 785 ft 131 kts 173°
2026-05-08 06:44 40.11215 116.60934 624 ft 138 kts 173°
2026-05-08 06:44 40.10250 116.61081 370 ft 141 kts 173°
2026-05-08 06:44 40.09296 116.61235 177 ft 134 kts 172°
2026-05-08 06:45 40.08416 116.61372 128 ft 122 kts 173°
2026-05-08 06:45 40.07765 116.61472 126 ft 67 kts 173°
2026-05-08 06:45 40.07503 116.61512 128 ft 10 kts 174°
2026-05-08 06:45 40.07438 116.61515 128 ft 9 kts 180°
2026-05-08 06:46 40.07361 116.61508 126 ft 12 kts 187°
2026-05-08 06:46 40.07276 116.61482 129 ft 13 kts 199°
2026-05-08 06:46 40.07157 116.61419 127 ft 26 kts 203°
2026-05-08 06:46 40.06984 116.61351 127 ft 8 kts 202°
2026-05-08 06:47 40.06972 116.61318 125 ft 13 kts 251°
2026-05-08 06:47 40.06957 116.61191 129 ft 16 kts 261°
2026-05-08 06:47 40.06943 116.61039 128 ft 18 kts 263°
2026-05-08 06:47 40.06921 116.60994 125 ft 10 kts 210°
2026-05-08 06:48 40.06837 116.60992 125 ft 13 kts 174°
2026-05-08 06:48 40.06808 116.60997 127 ft 2 kts 172°
2026-05-08 06:48 40.06787 116.61000 127 ft 4 kts 174°
2026-05-08 06:48 40.06748 116.61006 125 ft 7 kts 173°
2026-05-08 06:49 40.06724 116.61008 127 ft 0 kts 175°
2026-05-08 06:49 40.06717 116.61009 127 ft 3 kts 175°
2026-05-08 06:49 40.06711 116.61010 127 ft 0 kts 175°
2026-05-08 06:49 40.06708 116.61010 127 ft 0 kts 175°
2026-05-08 06:50 40.06705 116.61010 127 ft 2 kts 175°
2026-05-08 06:50 40.06693 116.61004 127 ft 3 kts 205°
2026-05-08 06:50 40.06676 116.60967 128 ft 5 kts 255°
2026-05-08 06:50 40.06671 116.60916 128 ft 1 kts 263°
2026-05-08 06:51 40.06670 116.60901 129 ft 0 kts 263°
2026-05-08 06:51 40.06669 116.60894 128 ft 0 kts 263°
2026-05-08 06:51 40.06669 116.60893 128 ft 0 kts 263°